FENGYUN 1C DEB

Satellite information

Favourite Embed

Satellite Type and Status

DEBRISIN ORBIT

Key statistics

Satellite FENGYUN 1C DEB at a glance.

Uptime

9555

Days in orbit

Revolutions

≈ 14.5

Per day

Orbit

SSO

Sun Synchronous Orbit

Inclination

98.1

Latest

Satellite identification and parameters

Extended collection of information and parameters for FENGYUN 1C DEB.

Object identification

Identified? True

Debris? True

Object name: FENGYUN 1C DEB

International designator: 1999-025ND

Object number (NORAD): 30028

Object ID (CCSDS): 30028

Country: PEOPLES REPUBLIC OF CHINA (PRC)

Current information (Y/N): Y

RCS size: SMALL

Orbital parameters

Period: 99.008 minutes

Inclination: 98.1337 deg

SMA: 7089.338 km

Apoapsis: 837.539 km

Periapsis: 584.866 km

RAAN: 183.7518 deg

Eccentricy: 0.0178206

Argument of periapsis: 2.7521 deg

Mean anomaly: 126.8998 deg

Mean motion: 14.54434852 rev/day

Mean motion (dot): 0.00002162 rev/day2

B* drag term: 0.00042124 1/REarth

Two-line elements (TLE)

Creation date: July 6, 2025, 6:05 p.m.

Reference frame: TEME

Reference center: EARTH

Epoch: July 6, 2025, 11:30 a.m. UTC

TLE line 0: 0 FENGYUN 1C DEB

TLE line 1: 1 30028U 99025ND 25187.47977848 .00002162 00000-0 42124-3 0 9992

TLE line 2: 2 30028 98.1337 183.7518 0178206 2.7521 126.8998 14.54434852974069

Live tracking on map

Real-time ground track for satellite FENGYUN 1C DEB.

In-orbit conjunctions

A list of the most updated potential collisions computed for object FENGYUN 1C DEB.

Target Orbit TCA Probability of collision Miss distance Type
COSMOS 2056 LEO 2025-03-26 00:56:05 0.0001854901 687.0 (m) PAYLOAD
THORAD AGENA D DEB LEO 2024-10-31 02:38:27 0.0001284837 376.0 (m) DEBRIS

Associated space launch

Chinese polar orbiting meteorological satellite

FENGYUN 1C DEB was lifted into orbit during the mission ‘Long March 4B | Feng Yun 1C’, on board a Long March 4B space rocket.

The launch took place on May 10, 1999, 1:33 a.m. from Launch Complex 7.

For more information about the launch, click the button.

Launch to space Long March 4B | Feng Yun 1C
Long March 4B | Feng Yun 1C

Agency: N/A

Status: Launch Successful

Launch date: May 10, 1999, 1:33 a.m. UTC

Rocket: Long March 4B

Launch pad: Launch Complex 7

Location: Taiyuan Satellite Launch Center, People's Republic of China

...

Latest news about this satellite

There are no fresh news available about this satellite. Check back as we update our databases every day.


Newsletter sign-up

Weekly statistics, charts and insights to help you stay on top of the space industry.